Wind_Speed
65 64 63 63 62 61 60 59 57 56 58 57 56 56 54 54 52 50 53 54 51 50 51 50 48 48 49 47 46 44 42 44 44 42 42 41 40 39 38 37 38 38 36 35 35 35 35 35 36 38 40 40 39 40 39 39 40 41 42 42 43 43 44 43 43 42 42 42 41 41 41 40 40 40 40 40 40 40 40 40 40 40 42 43 44 45
66 65 65 64 62 61 60 60 59 59 59 58 57 57 55 56 53 51 54 53 51 51 51 50 48 48 49 47 45 44 42 43 44 44 44 44 42 41 40 40 40 39 39 38 37 36 36 36 37 38 40 41 40 40 40 39 40 40 41 42 43 43 44 44 43 43 42 42 42 42 41 40 41 41 41 41 41 40 41 41 41 42 44 45 46 48
67 66 65 63 63 63 62 62 61 60 60 59 59 58 57 57 54 54 55 53 52 52 52 51 47 47 49 47 45 44 42 43 44 44 45 45 44 43 43 43 43 42 41 40 39 38 38 38 37 38 39 40 41 41 40 39 39 40 41 41 42 43 44 44 44 43 43 42 42 42 42 41 41 41 41 42 41 41 42 43 44 45 46 48 49 50
68 67 65 64 65 64 63 63 62 61 61 61 60 59 59 59 57 55 55 54 55 53 52 51 46 45 49 47 45 44 44 44 44 45 47 47 46 45 45 45 46 45 45 43 41 40 39 39 39 39 40 40 40 41 40 40 39 40 41 41 41 42 43 44 45 44 43 43 43 43 43 43 42 42 41 42 43 43 44 45 46 47 48 50 51 52
69 67 65 65 66 64 63 63 62 62 62 61 61 60 61 60 58 58 57 56 56 54 51 50 46 44 46 46 45 46 45 44 44 45 48 49 48 48 48 48 47 47 48 46 43 42 40 39 39 39 40 40 41 42 42 41 40 41 42 42 43 42 43 44 45 45 45 44 44 44 43 43 44 43 42 43 44 45 46 47 49 50 51 52 53 54
69 66 65 66 66 65 63 63 63 63 63 63 62 62 62 61 61 61 60 57 57 54 51 50 47 43 43 45 45 47 47 44 43 46 50 52 51 51 51 50 50 50 49 47 45 44 43 40 40 39 40 41 42 43 44 43 42 42 43 44 44 44 44 45 46 47 47 46 46 46 45 44 44 44 43 44 45 47 48 49 50 52 53 54 55 55
68 66 66 68 68 66 64 64 64 64 65 65 64 64 64 63 63 62 60 58 56 53 51 51 48 42 40 43 45 47 47 45 44 47 52 54 55 55 54 53 53 53 52 49 45 46 45 42 41 40 41 42 44 45 45 45 44 44 45 45 46 46 46 47 46 47 48 48 48 47 46 45 45 45 45 46 48 49 50 51 52 53 54 55 56 58
68 68 69 70 69 67 66 65 65 66 67 66 65 65 66 65 63 62 60 59 56 54 52 52 50 43 38 40 45 47 47 45 45 50 54 57 59 58 57 56 57 57 56 52 49 47 46 45 44 43 43 44 45 46 46 47 47 47 46 47 47 47 47 47 47 47 48 48 48 48 47 46 46 47 48 49 50 51 52 52 52 53 55 57 58 60
69 69 70 70 69 67 66 65 65 67 68 66 65 64 66 65 63 62 61 60 58 56 52 51 52 46 36 37 44 46 45 45 47 51 55 59 62 61 60 60 60 60 59 57 54 52 51 50 49 47 47 46 46 47 47 48 49 49 48 47 47 48 48 48 48 48 47 48 48 48 48 48 48 49 50 51 52 52 52 52 54 56 57 59 60 61
70 70 71 70 69 67 66 67 67 69 69 66 65 65 66 66 64 64 63 61 61 57 51 50 53 49 39 36 41 42 43 46 48 51 55 59 62 63 62 62 63 63 62 61 58 56 56 55 53 51 50 49 48 48 49 51 51 51 50 49 49 49 49 49 49 48 48 48 48 49 49 50 51 52 53 53 53 53 53 54 57 59 60 61 61 62
71 71 72 71 70 69 69 70 70 70 69 67 66 66 67 67 66 66 64 63 62 56 52 52 53 52 43 36 38 40 42 45 48 51 54 58 61 62 62 63 64 64 63 62 61 60 60 60 58 56 54 53 51 51 51 52 53 53 52 51 50 49 49 49 49 48 48 48 49 50 50 51 53 54 54 54 54 54 55 58 60 61 62 62 63 63
71 72 72 72 72 71 71 71 71 70 68 67 67 67 68 68 68 68 65 64 62 56 54 54 54 54 45 36 38 42 43 46 48 51 53 57 60 62 63 64 63 64 63 62 62 62 63 62 60 59 58 56 55 54 54 55 55 55 53 52 51 50 49 49 49 48 48 49 49 50 51 53 54 55 55 55 56 57 58 60 62 63 64 64 65 66
73 73 74 74 73 72 72 71 71 70 69 69 69 70 70 70 69 68 66 65 63 59 56 56 55 53 44 38 41 43 45 49 50 52 55 58 61 62 65 65 63 62 62 63 64 64 64 63 62 61 60 59 57 57 57 58 58 57 55 53 52 51 50 50 49 49 49 49 49 50 52 53 54 55 55 56 58 59 60 62 63 64 66 67 68 68
75 74 74 74 73 72 72 71 72 71 71 71 71 72 72 71 70 68 67 67 65 62 59 58 57 51 42 42 45 46 49 51 52 53 56 59 61 64 65 65 64 63 62 63 65 65 64 63 62 61 61 60 59 59 60 61 59 57 55 54 53 52 52 51 51 51 50 50 50 51 53 54 55 56 57 59 61 62 64 64 66 67 68 69 70 71
75 74 73 74 74 73 73 73 74 74 74 73 73 74 72 71 70 69 69 69 67 65 62 60 58 50 44 44 47 49 52 53 53 55 57 59 62 65 66 66 65 64 64 65 66 65 65 63 62 62 62 61 61 61 62 61 59 56 55 54 53 53 53 53 53 52 52 52 52 53 54 56 57 58 59 61 63 65 66 67 68 69 70 70 71 72
77 75 74 75 75 75 76 76 76 76 75 75 75 75 72 71 72 72 72 70 69 68 63 60 57 50 48 48 48 51 53 54 55 57 59 62 63 66 67 67 67 66 66 66 66 66 65 64 64 64 63 62 61 61 61 60 57 55 55 55 53 53 54 55 54 54 54 54 55 56 57 58 59 60 61 62 64 66 67 68 69 70 71 71 73 73
78 77 76 77 77 78 78 78 78 77 76 76 76 75 72 72 75 75 74 72 72 70 63 60 57 54 53 51 49 52 53 54 58 59 62 64 65 66 68 68 68 68 68 69 68 67 67 66 66 64 62 61 60 60 59 58 56 55 54 54 54 54 55 56 56 56 56 56 57 58 59 60 60 62 63 64 66 67 68 69 70 71 72 72 73 73
80 80 79 78 79 79 80 80 80 79 78 77 76 75 75 75 76 76 76 74 74 72 65 61 60 57 56 52 50 54 55 57 61 61 62 65 65 67 69 69 69 70 70 70 69 69 68 67 66 64 62 61 61 60 58 57 56 54 54 54 55 55 57 58 58 58 58 58 59 60 61 62 63 64 66 67 68 68 69 70 70 71 72 72 71 70
82 82 81 80 81 82 83 83 82 79 78 78 77 78 78 78 78 78 79 76 75 75 69 64 62 59 56 53 54 57 59 61 63 62 63 65 66 68 70 71 71 71 70 70 70 70 70 68 67 65 64 63 62 60 58 57 56 54 53 53 55 57 59 60 60 60 60 61 62 63 65 65 66 67 67 68 68 68 69 69 69 69 69 68 67 66
84 84 84 83 83 84 84 83 81 80 80 81 81 81 80 80 79 79 80 78 77 77 73 68 65 60 55 56 58 60 62 63 63 63 64 65 66 70 74 74 74 72 70 70 71 71 71 71 69 68 66 64 62 61 60 60 59 56 54 53 55 58 61 62 62 62 63 64 66 67 68 68 68 69 69 69 69 69 68 68 67 67 66 65 64 64
86 85 85 84 84 85 84 83 82 83 84 84 83 82 81 80 81 81 81 80 79 78 75 72 69 61 57 60 62 62 64 64 64 65 65 66 68 72 74 75 76 73 71 70 72 73 72 72 71 70 67 65 62 61 60 61 60 59 58 56 56 60 64 64 64 64 67 68 69 70 70 70 70 70 71 71 71 70 69 67 66 65 65 65 64 64
88 87 87 87 85 84 84 84 85 86 86 85 84 82 81 81 82 83 83 81 81 80 78 78 74 62 58 64 65 64 66 65 65 66 67 69 71 73 74 76 77 73 71 72 74 75 74 73 71 70 68 66 64 62 61 60 61 62 61 59 59 62 66 66 66 68 70 71 72 72 72 72 73 73 73 74 73 72 70 68 66 66 66 66 65 64
92 91 91 89 86 85 86 87 87 87 87 86 85 83 82 83 84 85 85 84 84 83 80 82 79 65 59 65 66 65 66 66 67 69 70 72 73 74 76 77 76 73 72 75 76 76 76 73 71 70 68 66 65 64 62 62 63 63 63 62 62 64 67 68 69 71 72 73 74 74 75 75 75 75 75 76 75 74 72 70 68 67 67 67 67 66
95 94 93 92 90 89 89 88 88 88 87 86 85 84 85 85 86 87 88 87 87 86 81 84 82 68 61 66 66 65 67 69 70 72 73 74 75 77 79 78 76 75 75 77 76 76 75 73 70 69 69 68 65 65 64 64 64 65 64 64 64 66 68 69 71 73 74 75 76 77 77 78 78 79 78 78 77 75 73 71 70 69 69 69 69 68
98 97 96 95 94 92 90 88 87 87 87 87 87 87 88 88 89 90 90 90 91 86 82 84 82 70 63 67 68 68 71 71 72 74 75 78 79 80 80 78 77 77 78 78 77 74 74 73 70 68 70 71 69 67 66 66 66 66 66 66 66 67 69 71 74 76 77 78 78 79 80 81 82 82 82 80 79 76 74 72 71 71 71 71 70 70
100 100 99 98 97 93 89 87 87 88 90 91 89 89 90 91 92 92 91 93 91 85 82 85 83 73 68 70 71 72 73 73 74 76 78 80 81 80 80 80 80 80 80 79 78 74 73 73 71 69 71 74 73 70 68 68 68 67 68 68 68 69 71 73 76 79 80 80 81 81 83 84 85 85 83 81 79 77 75 73 73 72 72 72 72 71
103 103 102 100 98 94 89 87 88 91 92 92 89 89 91 92 93 94 93 92 87 84 85 87 84 78 74 74 76 76 75 76 76 77 78 79 81 82 82 82 82 81 81 79 77 74 73 72 72 71 73 75 75 72 70 70 70 70 70 70 71 72 74 76 78 80 82 82 82 84 86 87 88 86 84 81 79 77 75 74 74 73 73 73 72 72
104 103 102 100 98 95 91 90 92 93 92 91 91 91 92 92 93 95 94 89 86 89 90 86 85 86 81 77 79 79 78 79 78 77 79 80 82 83 83 83 82 81 80 78 75 74 74 74 74 74 74 74 74 74 72 72 72 72 72 73 74 76 77 78 79 81 82 83 85 88 89 90 89 86 84 82 79 77 76 75 75 74 74 73 73 73
105 104 102 101 100 97 94 93 95 94 92 92 93 93 93 94 94 94 93 88 88 93 94 87 87 91 85 80 81 81 81 82 82 81 81 82 82 83 83 83 82 80 78 76 75 74 75 77 78 77 75 73 72 73 73 73 73 74 75 76 78 79 79 79 80 82 84 86 89 90 90 89 88 86 83 81 79 78 77 76 76 75 74 73 73 73
105 104 102 101 101 100 97 95 96 97 95 94 95 95 94 94 94 93 91 90 91 96 96 91 90 91 86 83 84 83 82 84 85 84 84 83 82 82 81 80 79 78 78 77 76 77 78 80 79 77 76 74 73 72 73 74 75 76 77 79 80 81 81 81 83 86 88 89 90 91 90 88 86 84 82 80 78 78 77 77 76 75 74 73 74 74
106 104 102 102 104 103 98 96 97 100 101 100 99 97 95 94 93 93 92 93 95 98 96 94 94 90 85 86 87 85 85 87 87 86 85 84 82 80 79 79 80 80 79 78 78 79 81 81 80 78 77 77 75 74 74 75 77 77 79 80 82 83 85 86 88 90 91 91 90 90 88 86 83 81 79 77 76 77 77 76 76 75 75 75 75 76
105 104 102 103 106 104 98 96 99 103 106 106 102 96 92 91 92 93 95 97 97 98 98 99 97 90 85 87 90 88 88 88 86 86 86 85 83 82 81 81 80 79 78 79 81 82 82 81 80 79 78 78 78 77 77 77 78 79 82 84 86 87 89 90 91 92 92 92 90 88 85 82 80 78 76 75 75 76 76 76 76 76 76 77 77 77
105 104 102 104 107 105 99 99 102 106 110 108 99 91 90 92 94 97 99 98 98 99 100 100 97 90 87 89 91 89 88 89 88 88 88 87 86 85 83 81 79 78 80 83 84 83 82 81 80 81 81 80 80 80 81 81 82 84 86 88 90 91 92 93 93 93 93 92 89 86 82 79 77 76 76 75 75 76 76 76 76 77 78 78 79 79
108 107 106 107 109 107 103 103 106 110 111 105 95 90 92 95 98 100 100 98 98 100 101 99 96 92 90 90 91 91 92 92 91 89 87 87 87 86 84 83 82 82 84 85 84 83 83 83 83 83 84 83 84 85 85 86 87 88 89 91 92 94 95 95 95 94 92 90 87 83 80 77 76 75 76 76 76 76 77 77 78 79 80 80 81 81
109 109 109 109 110 110 107 107 110 112 108 101 94 93 95 97 99 101 101 99 99 100 100 99 97 95 93 93 95 95 94 94 92 88 87 89 90 88 86 86 86 86 86 85 84 84 86 86 86 86 87 87 88 90 91 91 91 91 92 93 95 96 96 96 94 92 90 87 83 81 79 77 76 75 76 77 78 78 78 79 79 80 81 82 83 84
109 109 110 110 111 111 110 111 112 111 106 101 97 95 95 97 100 103 103 101 99 100 101 101 99 97 96 97 98 97 96 95 93 89 89 90 90 89 89 90 89 88 86 86 86 87 89 90 90 90 91 92 92 93 94 94 94 94 95 96 97 97 97 95 92 90 87 84 82 80 79 77 76 76 77 79 80 80 81 81 81 82 83 84 85 86
111 112 112 113 113 113 113 112 112 111 108 104 98 94 95 99 102 105 106 104 101 101 102 103 101 100 100 100 100 98 98 98 94 90 90 92 92 93 94 94 92 90 89 89 89 90 91 92 93 93 94 94 95 95 96 96 96 96 97 98 98 97 96 93 90 88 85 83 81 80 79 78 78 79 79 80 81 82 83 83 84 85 86 86 87 88
115 115 115 116 116 116 116 116 116 115 111 103 97 96 99 103 105 108 110 107 102 101 103 103 103 103 103 104 102 100 101 101 96 92 94 96 96 96 96 95 95 93 92 92 92 92 93 94 94 95 96 97 97 97 98 98 98 99 99 99 98 96 93 90 88 86 84 82 81 80 80 80 81 81 82 82 83 83 84 84 84 85 86 87 88 89
117 117 118 119 119 119 119 120 120 118 112 104 100 101 104 106 108 111 113 109 103 102 104 105 106 108 108 106 104 103 104 102 96 95 98 99 97 97 97 97 97 96 95 95 95 95 95 96 97 98 99 99 100 100 100 100 100 100 99 98 96 93 91 89 87 84 83 82 81 81 81 82 83 83 83 83 82 82 82 82 83 83 84 85 87 88
117 118 118 119 120 120 121 121 121 119 112 105 103 103 105 108 110 112 113 109 104 104 106 108 111 113 111 108 106 105 104 102 98 98 100 99 98 98 98 99 99 99 98 98 98 98 98 99 100 101 102 102 102 102 101 100 99 98 96 94 92 90 89 88 86 84 83 83 82 82 83 83 84 84 83 82 81 80 80 80 81 82 83 84 85 86
118 119 119 120 120 120 121 121 121 119 112 107 105 105 107 110 112 111 110 107 106 108 109 110 113 114 111 109 107 106 104 103 102 101 101 101 101 102 103 103 103 103 103 102 102 101 101 101 102 103 103 103 102 101 99 97 95 93 91 90 88 87 87 87 86 85 85 84 83 83 83 84 84 84 83 82 81 81 81 81 82 83 84 85 86 87
121 121 121 121 121 121 122 122 123 120 114 110 109 111 113 115 114 111 110 110 111 112 112 111 112 112 112 110 109 107 107 106 105 104 105 106 106 107 108 108 107 107 106 105 104 103 102 101 101 101 100 99 97 96 94 92 90 88 87 86 86 87 87 87 87 87 86 85 84 84 84 84 84 84 84 84 84 84 83 83 84 85 86 87 88 89
124 125 124 124 123 123 124 125 124 121 115 114 115 117 117 117 115 114 115 116 116 114 114 113 114 114 115 113 112 111 110 110 109 109 109 110 111 111 111 110 108 106 105 103 102 100 98 97 95 95 94 92 91 89 88 87 86 86 86 86 87 88 88 88 88 88 87 86 85 85 85 85 85 85 85 86 86 87 86 87 87 88 89 90 90 91
126 126 126 125 125 126 127 127 125 122 120 119 119 120 119 118 118 118 119 119 118 117 117 117 117 118 117 116 115 115 114 113 114 114 114 113 112 110 108 106 103 101 99 96 95 93 91 89 89 89 89 88 87 87 86 86 85 86 87 88 89 89 89 89 89 89 88 87 87 86 86 86 87 87 88 88 89 90 90 90 91 91 92 93 93 94
120 121 122 123 125 126 127 126 124 123 122 121 121 120 120 120 119 119 119 119 119 119 118 118 118 118 118 117 117 117 116 116 115 114 112 110 106 103 100 98 96 94 93 91 90 89 88 87 86 87 88 88 89 89 89 88 87 87 88 89 89 90 90 90 90 89 89 89 89 89 89 89 90 90 90 91 92 92 93 93 94 94 95 96 97 98
112 112 114 116 117 118 118 118 117 117 117 117 117 117 117 116 116 115 115 114 114 113 113 112 112 112 112 112 112 112 112 111 109 107 104 101 98 96 94 92 91 90 90 89 89 89 88 88 88 88 89 90 91 91 91 90 89 88 88 89 90 90 90 90 90 90 91 91 92 92 92 92 92 93 93 94 94 95 95 95 96 97 98 99 101 103
107 107 108 109 110 110 109 108 108 108 109 109 109 109 109 109 109 109 108 107 107 106 105 104 104 104 103 103 103 103 102 101 99 98 96 95 94 93 92 92 91 90 90 90 90 90 90 89 89 89 90 91 92 93 93 92 91 90 90 90 91 91 91 91 91 92 92 93 93 94 94 94 94 95 95 96 97 97 97 98 99 101 102 104 106 108
104 104 104 105 106 106 104 102 102 103 103 103 103 104 105 105 105 104 104 104 104 103 102 101 100 100 99 99 98 97 97 96 96 95 95 94 93 93 93 93 92 92 92 92 91 91 90 90 90 90 90 91 93 93 94 94 94 93 93 93 94 94 94 94 94 94 94 95 95 95 95 96 96 97 97 98 99 100 101 102 103 106 108 110 113 115
102 103 104 104 104 103 102 100 100 101 101 101 102 102 103 103 103 103 104 104 104 103 102 101 100 100 99 99 98 97 96 95 96 96 96 95 94 94 94 93 93 92 92 92 92 92 92 92 92 92 93 93 94 95 96 96 97 97 97 97 97 97 97 97 97 97 97 97 97 97 97 97 97 98 99 100 102 103 105 107 109 112 114 116 118 120
103 104 105 105 104 103 101 101 101 101 102 102 102 103 103 103 104 104 104 104 104 104 104 103 102 102 101 99 98 98 97 96 97 98 97 95 95 95 95 94 94 93 93 93 94 94 95 95 96 96 97 97 98 99 99 100 101 101 101 101 101 100 100 100 99 99 99 99 99 99 99 100 101 102 103 105 106 109 111 113 116 118 120 122 123 124
107 108 109 108 106 104 103 102 102 102 103 103 103 103 103 104 105 105 105 104 104 104 105 105 104 103 102 101 100 99 99 98 98 99 98 97 96 96 97 96 96 96 96 97 97 98 99 99 100 100 100 101 102 103 103 104 104 105 105 104 104 103 103 103 103 103 103 103 104 104 105 106 108 109 111 112 114 116 118 120 122 123 125 126 127 128
Wind_Direction
237 239 240 241 243 244 246 248 250 250 251 253 255 258 261 262 264 265 267 270 272 273 274 275 277 278 278 279 281 283 285 286 287 287 288 288 289 290 291 293 295 297 300 303 305 307 309 310 309 308 307 307 307 306 305 305 305 305 305 305 304 304 303 303 304 303 303 304 305 305 306 306 306 306 306 305 305 305 305 306 306 306 305 304 304 303
238 239 240 242 243 245 247 248 248 249 252 254 257 259 260 262 264 265 266 269 271 271 272 273 275 276 277 279 281 283 285 285 286 288 289 289 290 291 293 294 295 298 301 302 304 306 307 309 308 306 305 305 305 304 304 304 304 304 304 303 303 303 303 303 303 302 302 303 303 304 304 304 304 305 305 304 303 303 303 303 303 304 303 303 303 303
239 240 241 242 243 245 246 247 249 251 253 255 257 259 260 262 263 264 266 268 268 268 270 272 273 275 277 279 281 284 284 283 285 287 288 289 290 292 293 294 296 299 300 301 304 306 307 308 306 304 304 304 304 303 303 304 304 303 302 302 302 302 302 301 301 301 301 301 301 301 302 302 302 303 304 303 301 300 300 299 300 301 302 302 303 303
239 240 241 242 244 245 247 249 250 252 254 255 257 259 260 262 263 264 265 266 266 267 269 271 272 273 276 280 282 282 281 282 284 286 287 288 289 290 292 293 296 299 300 301 304 305 306 306 304 304 304 304 303 302 302 302 303 302 301 301 300 300 300 299 300 300 299 298 298 299 300 300 301 302 302 300 299 298 297 297 298 299 300 301 302 302
240 241 242 244 245 246 248 249 250 252 254 255 257 258 260 262 263 264 264 265 267 267 268 269 270 272 276 279 281 280 280 282 284 286 286 287 289 290 291 293 296 297 298 300 303 304 304 304 304 305 304 303 302 301 301 301 302 301 300 299 299 298 297 297 298 298 297 296 296 297 298 299 299 300 300 299 297 297 296 296 297 297 298 299 300 300
240 241 243 244 246 246 247 249 250 252 254 256 257 259 261 263 263 264 265 265 266 266 267 268 269 272 275 278 279 279 280 282 284 286 286 287 288 289 290 292 294 295 296 299 303 303 303 303 303 304 303 302 301 301 301 302 302 300 299 298 297 297 297 296 297 296 295 294 294 295 296 297 298 298 298 297 296 296 295 295 296 296 297 298 299 300
240 241 242 244 245 246 247 249 251 253 255 257 259 261 262 263 264 264 265 264 264 265 266 267 269 271 273 275 276 277 279 283 285 286 286 286 287 288 291 293 294 294 296 299 302 302 302 303 304 305 304 303 303 302 303 303 302 300 299 298 297 298 297 297 296 295 294 293 293 294 295 296 296 297 296 296 296 295 295 295 295 296 297 298 299 299
239 240 242 244 246 247 249 251 253 255 257 259 260 261 262 263 263 263 263 262 262 262 264 268 271 270 268 271 273 275 278 283 285 285 286 286 287 289 292 293 294 295 298 301 303 304 304 305 307 307 306 305 304 304 303 302 301 300 299 299 299 299 299 298 296 294 292 291 291 292 294 295 296 295 295 295 295 295 295 295 295 296 297 298 298 299
240 242 244 246 248 249 251 252 254 256 257 259 259 260 261 261 260 260 260 261 261 262 264 268 271 270 266 265 269 274 279 282 282 283 285 286 288 291 293 294 296 298 301 304 306 307 306 307 308 308 308 307 305 304 303 302 301 300 300 302 303 302 300 298 296 294 291 289 290 291 292 294 294 295 295 295 294 294 294 294 295 296 297 297 298 298
242 243 245 247 249 250 251 252 254 255 256 257 257 257 259 259 259 259 259 261 262 263 266 268 270 270 265 258 264 272 276 279 280 281 284 286 288 291 293 295 297 299 301 304 306 307 307 307 308 309 309 307 306 305 303 302 301 301 303 306 306 303 301 298 296 294 291 289 288 289 290 292 293 294 294 294 293 293 294 294 296 297 297 297 297 298
243 245 247 248 250 251 251 252 253 254 255 256 256 257 257 259 259 260 260 261 263 265 267 267 267 267 265 260 262 267 267 269 274 277 280 282 285 288 290 291 294 296 299 301 304 306 305 306 308 309 309 307 306 305 304 302 301 303 306 308 306 303 300 298 296 295 292 290 289 289 290 291 292 293 293 293 293 294 295 296 296 297 297 298 298 299
244 246 247 248 249 250 251 252 253 254 255 255 255 256 257 257 258 260 261 262 264 265 265 266 265 266 268 262 259 264 265 264 266 269 272 275 278 282 284 286 289 292 296 300 302 303 303 305 307 308 307 306 306 305 303 301 302 305 307 307 305 301 299 297 296 295 293 291 290 290 291 292 293 293 294 294 294 295 296 296 297 297 298 299 299 300
243 245 247 248 249 250 251 252 253 253 254 253 254 254 255 256 257 259 262 264 265 265 264 264 264 265 268 263 259 263 263 262 264 266 269 272 275 278 280 283 286 289 293 297 299 299 301 303 305 305 305 305 305 304 302 301 303 306 306 305 303 300 298 297 295 294 293 292 292 292 293 294 294 295 295 295 295 295 296 297 298 298 299 299 300 300
245 246 247 249 249 250 250 251 252 252 252 252 252 253 254 256 258 260 262 263 264 264 263 262 262 264 266 263 262 263 261 261 263 266 269 273 276 278 280 283 286 288 291 294 295 297 299 301 302 302 302 302 302 301 300 301 304 305 305 303 301 299 297 296 295 294 294 293 294 294 294 295 296 296 296 296 296 296 298 298 299 299 299 299 299 300
245 245 246 247 248 249 249 249 250 250 251 251 252 253 255 257 259 260 260 262 262 262 262 262 264 267 265 261 262 263 263 264 266 268 270 273 275 277 279 282 285 287 289 292 294 296 297 299 300 300 300 300 300 300 300 301 304 304 303 302 300 297 295 295 295 295 295 295 295 295 296 297 297 297 297 296 297 297 298 298 298 298 298 298 298 299
245 245 245 246 246 247 248 248 248 249 250 251 253 254 256 257 259 259 260 261 261 261 262 264 267 267 262 259 260 261 264 267 270 272 272 273 275 278 281 283 285 287 290 292 294 295 297 298 298 298 298 299 299 299 300 301 303 303 302 300 297 295 294 294 295 296 296 296 297 298 298 298 297 297 296 296 296 297 297 297 297 297 297 297 298 298
244 244 244 245 246 246 247 248 249 250 251 252 254 256 257 257 258 260 260 261 261 262 262 263 264 263 261 261 262 263 266 268 270 272 274 276 278 281 282 284 286 289 291 292 294 295 296 296 296 297 298 298 298 298 299 300 301 301 299 296 294 293 294 295 296 296 297 298 299 300 299 298 298 297 297 297 297 298 298 298 298 298 297 297 297 298
243 243 244 244 245 247 248 249 250 251 251 253 254 256 256 256 257 259 260 260 261 262 261 261 262 262 263 265 266 266 268 269 269 271 274 276 278 280 282 283 285 288 290 293 295 295 294 294 295 297 297 297 297 297 298 299 299 298 295 292 291 292 294 295 296 297 299 300 301 301 300 299 299 299 299 299 299 299 299 299 298 298 298 298 299 300
243 244 244 244 245 246 247 248 250 251 252 253 253 254 254 255 256 257 259 260 261 263 263 262 262 263 265 267 267 267 268 269 271 273 274 276 278 280 280 282 284 287 290 293 293 293 293 294 295 295 295 296 296 297 298 297 296 294 291 290 291 293 294 295 296 299 301 301 301 301 301 301 301 301 301 301 301 301 300 300 300 300 300 300 301 301
243 243 243 244 245 246 247 249 250 251 251 251 251 252 253 255 256 257 260 261 262 264 265 264 265 267 267 266 266 267 268 269 271 273 275 278 280 280 281 282 284 287 290 291 291 292 293 294 294 294 294 295 296 296 296 295 294 291 289 289 291 292 293 294 298 300 301 301 302 302 303 303 303 304 304 303 303 302 302 302 302 302 301 301 301 301
243 244 244 244 244 246 247 248 249 249 250 250 251 252 253 255 257 258 260 262 263 265 267 267 266 267 266 265 265 267 268 270 271 273 276 278 278 278 280 282 284 287 289 290 291 292 292 292 293 294 295 296 295 295 294 294 292 290 289 290 291 292 292 294 298 299 300 301 302 303 304 305 305 305 305 305 304 304 303 303 303 302 301 301 301 301
244 244 244 244 243 245 246 247 248 249 250 251 252 253 254 255 257 259 261 262 263 265 266 267 267 266 265 265 266 267 269 271 273 275 277 276 276 277 278 280 282 286 289 290 290 290 290 291 292 294 295 295 294 294 293 292 291 289 290 293 294 293 293 295 297 299 300 301 302 304 305 305 306 306 306 305 305 304 304 303 303 302 301 300 300 300
244 244 244 245 244 244 245 246 248 250 251 252 253 254 255 256 258 260 261 261 262 263 265 267 268 268 265 265 267 270 272 274 275 275 275 274 275 276 277 279 283 287 289 288 288 288 289 291 294 295 294 293 294 294 294 291 289 290 292 295 296 294 294 295 297 299 301 302 303 304 305 306 306 306 305 305 305 305 304 303 302 301 300 300 300 300
244 244 244 245 244 244 245 246 248 250 251 253 254 255 255 256 257 258 260 261 262 263 265 267 269 271 269 268 270 272 273 274 274 274 274 275 276 277 278 282 285 287 287 286 286 288 290 293 294 294 293 293 293 293 292 291 290 292 294 295 295 293 293 294 296 298 300 301 303 304 305 306 306 305 305 305 305 304 303 302 302 301 300 300 300 300
244 245 245 244 244 244 245 246 248 250 252 253 253 254 255 256 257 258 260 261 262 264 267 268 271 274 272 270 271 272 272 272 273 273 274 276 277 279 281 284 286 286 285 286 287 289 292 292 292 292 293 293 293 293 292 292 292 292 293 293 294 293 293 294 295 297 299 301 303 304 304 305 305 305 305 304 304 303 302 302 301 301 300 299 299 300
245 245 245 246 246 246 246 248 249 250 251 251 252 254 255 257 258 259 260 262 265 268 269 270 272 273 271 270 271 271 271 271 272 273 275 277 279 281 283 284 284 285 285 286 288 290 290 289 290 292 291 292 293 294 294 293 292 292 292 293 293 293 293 294 295 298 300 301 302 303 303 304 304 304 303 302 302 302 301 301 301 301 300 299 299 299
245 245 246 247 248 248 248 248 249 249 251 252 254 255 256 258 259 261 261 263 267 269 269 270 272 271 269 270 271 270 271 272 273 275 276 278 279 281 282 283 284 284 285 287 288 288 288 288 290 290 290 292 294 295 294 292 292 292 292 293 293 293 293 294 296 298 299 300 301 301 302 302 302 302 301 301 301 300 300 300 301 301 300 298 297 297
246 246 247 248 249 249 249 249 249 250 251 253 255 255 256 258 259 261 263 265 268 268 268 269 271 270 270 270 271 271 273 273 274 274 275 277 278 280 281 282 283 284 285 285 286 286 287 288 288 288 289 292 294 294 293 291 291 290 291 292 292 292 293 294 295 297 298 299 299 299 300 300 300 300 300 299 299 299 299 299 300 300 299 297 296 296
246 247 248 249 250 250 249 249 250 251 251 253 254 255 256 257 259 261 264 266 267 267 267 268 268 270 272 272 272 273 274 274 274 274 275 277 278 279 280 281 283 283 283 284 284 285 286 286 287 287 289 291 291 291 290 289 288 289 290 292 292 292 292 293 294 295 296 297 297 298 298 298 298 298 298 298 298 298 298 298 298 298 297 295 294 294
246 247 247 249 250 250 249 250 251 253 252 252 252 254 255 257 259 262 263 265 265 266 267 268 267 269 273 273 272 273 273 273 274 275 277 278 278 278 279 279 280 280 280 281 282 284 284 284 286 288 289 290 289 288 287 287 287 289 290 290 290 291 291 292 293 293 295 295 296 297 297 297 297 297 296 296 296 297 297 297 297 296 294 293 292 292
246 247 248 249 250 250 250 251 252 253 253 252 251 252 254 257 260 262 264 264 265 266 268 268 268 270 273 273 272 272 272 274 275 277 278 278 277 277 277 277 277 278 279 281 281 282 282 284 286 288 289 288 287 286 286 287 288 289 289 289 289 290 291 292 292 293 294 295 295 296 296 295 295 294 294 295 295 296 296 296 295 293 292 290 290 290
247 248 248 250 251 251 251 252 253 253 254 253 253 255 257 259 261 262 263 264 265 267 268 268 270 272 273 271 271 273 274 275 275 276 276 276 276 276 276 277 278 279 280 280 280 281 283 285 287 288 287 286 286 286 287 287 288 288 288 288 289 290 291 292 292 293 294 295 295 295 294 293 293 293 293 294 295 295 295 294 293 291 289 289 288 289
248 249 249 250 251 252 251 252 253 253 254 255 257 259 260 260 261 262 263 264 266 267 268 269 271 272 272 271 272 273 273 273 274 274 275 276 276 276 276 276 277 278 278 279 280 282 284 286 286 285 285 285 286 286 286 287 287 287 288 289 290 290 291 292 293 294 294 295 294 293 292 291 291 291 292 293 294 294 293 292 290 288 288 287 287 288
249 250 250 251 252 253 252 253 253 254 255 258 260 260 261 261 262 262 263 264 266 267 268 270 271 271 270 270 271 271 271 272 273 274 276 276 275 275 276 277 277 276 277 279 281 283 284 284 284 284 284 285 285 285 286 287 287 288 288 289 290 291 292 293 293 294 294 293 293 292 291 290 290 291 292 293 293 292 291 289 287 287 286 286 286 287
250 251 252 253 254 254 254 254 255 256 258 260 260 260 261 262 263 264 264 265 265 266 267 268 269 269 269 269 269 270 271 271 272 273 274 274 275 276 277 276 276 277 279 281 282 283 283 283 284 284 284 284 284 285 286 287 288 288 289 290 290 291 292 293 293 293 292 292 291 290 290 290 290 291 291 291 290 289 288 287 286 286 285 285 285 286
251 252 253 254 255 255 255 256 257 258 259 259 259 260 262 263 264 265 265 265 265 266 267 267 268 268 269 269 269 270 271 271 271 273 274 274 275 275 275 276 277 278 280 281 282 283 283 284 284 284 284 284 285 286 287 287 288 289 289 290 291 291 292 292 292 291 290 290 289 289 289 288 289 289 288 288 287 287 286 285 285 285 284 284 285 286
250 251 253 254 255 256 256 257 257 258 258 258 260 261 262 263 264 264 265 265 265 267 268 269 269 269 269 269 270 271 271 271 272 273 274 274 274 274 275 277 278 280 281 282 282 283 283 284 284 285 285 285 285 286 287 287 288 289 289 290 290 291 291 291 290 289 288 288 288 287 287 286 286 286 286 286 286 285 284 284 284 284 285 285 285 286
250 251 252 254 255 255 256 257 257 257 258 260 261 262 262 263 264 265 265 266 267 268 269 270 270 270 270 270 271 271 271 272 274 275 274 273 274 276 277 278 279 280 281 282 282 283 283 284 284 284 284 285 285 286 286 287 288 288 289 289 289 289 289 288 287 287 287 286 285 285 284 284 284 284 284 285 285 284 284 285 285 285 286 286 286 286
251 252 253 254 254 255 256 257 258 259 259 260 260 261 262 263 264 265 266 267 268 268 269 270 270 270 270 270 271 271 272 274 276 275 274 275 277 278 279 279 280 281 281 282 282 283 283 283 283 284 284 284 285 285 286 286 287 288 288 288 288 287 286 286 286 285 284 283 283 282 282 282 282 283 284 285 285 284 284 285 285 285 286 286 286 286
252 252 253 254 255 256 257 257 258 259 260 260 260 261 262 263 263 264 266 267 268 268 268 268 269 269 269 270 271 272 274 275 275 275 275 277 278 278 279 279 280 280 281 281 282 282 282 282 283 283 284 284 284 285 285 286 286 286 286 286 286 285 284 284 284 283 282 281 281 280 280 281 282 283 284 284 284 284 284 285 285 286 286 286 287 287
252 252 253 254 255 256 257 258 259 259 260 260 260 261 261 261 262 263 266 267 267 266 266 266 267 269 270 271 272 273 274 274 274 275 276 276 277 278 278 279 279 280 280 280 281 281 282 282 282 283 283 283 284 284 284 284 284 284 284 284 283 282 282 282 282 282 281 281 280 279 279 280 281 282 283 283 284 284 285 285 286 287 287 288 288 288
252 253 253 254 255 256 257 258 259 260 260 261 262 261 261 261 262 263 264 264 264 265 266 267 269 270 271 271 272 273 273 273 274 274 275 276 277 277 278 278 279 280 280 280 281 281 281 282 282 282 282 282 282 282 282 282 282 282 282 281 280 279 280 280 280 280 280 280 279 279 279 279 280 281 282 282 283 284 285 286 286 287 288 288 288 289
252 253 253 254 256 257 257 258 259 260 261 261 261 261 261 262 263 263 263 263 264 265 266 267 268 269 270 270 271 271 272 273 273 274 275 276 276 277 278 279 279 279 280 280 280 280 280 280 279 279 279 279 279 279 280 280 281 280 280 279 279 279 279 279 279 279 279 279 278 278 278 278 279 280 280 281 282 283 285 286 286 287 288 288 290 291
252 253 254 255 256 256 257 258 259 260 260 260 260 261 262 263 263 264 265 265 266 266 266 266 267 267 268 269 270 270 271 272 273 274 275 275 276 276 277 277 277 277 277 277 276 276 276 275 275 275 275 275 275 276 277 278 279 279 279 278 278 278 277 277 277 277 277 277 277 277 277 278 278 279 280 281 282 284 285 286 286 287 288 289 290 291
252 253 254 254 255 255 256 258 259 260 260 261 262 262 263 263 264 264 265 265 266 266 266 267 267 268 268 269 270 270 271 271 272 273 273 273 274 273 273 273 273 272 272 272 272 272 271 271 272 272 272 273 274 275 276 278 278 279 278 278 277 277 276 276 276 276 276 276 277 277 278 278 279 280 281 283 284 285 286 286 287 288 288 289 290 292
253 253 254 254 255 256 256 258 259 260 261 261 262 262 263 263 264 264 264 265 266 266 267 267 267 267 268 268 269 269 269 269 269 270 270 270 270 270 270 270 269 268 268 269 269 269 269 270 270 270 271 272 274 275 276 278 278 278 278 278 277 277 277 277 277 277 277 278 278 279 280 280 281 282 283 285 286 287 288 288 289 290 291 292 294 296
253 254 255 256 257 257 257 258 259 260 261 261 262 263 263 263 264 264 265 265 266 266 267 267 267 267 266 266 266 266 266 267 267 267 267 267 268 268 269 269 269 269 268 268 268 269 269 269 269 270 271 272 274 275 277 278 278 278 278 278 278 278 278 278 279 279 279 280 280 281 282 283 283 284 285 286 287 288 289 291 292 293 295 296 298 299
255 255 256 256 257 258 258 258 259 259 260 261 262 263 263 264 265 265 266 266 266 267 267 267 267 266 266 265 265 265 265 265 266 266 267 267 267 267 268 268 269 269 270 270 270 270 270 270 271 271 272 273 274 276 277 278 278 279 279 279 279 279 280 280 280 280 281 281 282 282 283 284 285 285 286 287 288 290 292 293 295 296 298 298 299 299
256 257 257 257 258 259 259 259 259 259 260 260 261 262 264 265 266 266 266 266 266 266 266 267 267 267 266 266 266 266 266 266 267 267 267 267 267 268 268 268 269 270 271 272 272 273 273 273 273 274 274 274 275 275 276 278 279 280 280 280 281 281 281 282 282 282 282 283 283 284 284 285 285 286 287 288 290 292 294 295 297 298 298 298 298 298
259 259 259 259 259 260 260 260 260 261 261 262 263 263 264 265 266 266 266 266 267 267 267 267 267 267 267 267 268 268 268 268 268 268 268 268 268 269 269 270 270 271 272 273 273 274 275 275 275 276 276 277 277 277 278 279 280 281 281 282 283 283 283 283 284 284 284 285 285 286 286 287 288 289 290 291 293 294 295 296 297 297 297 296 296 296
262 262 262 262 261 261 262 262 262 263 263 264 264 265 265 266 267 267 267 268 268 268 268 268 269 269 270 270 270 270 270 270 270 271 271 272 272 272 272 272 272 273 274 274 275 275 275 276 276 277 278 279 280 280 281 282 283 284 284 285 285 286 286 286 287 288 288 289 290 290 291 292 293 294 294 295 295 295 295 295 295 295 295 295 295 295
Height
10752 10755 10757 10758 10760 10762 10764 10767 10770 10770 10768 10770 10772 10774 10777 10777 10781 10783 10780 10782 10786 10786 10786 10787 10788 10786 10785 10787 10786 10787 10787 10784 10783 10784 10784 10784 10785 10785 10786 10787 10786 10786 10787 10788 10787 10787 10787 10785 10783 10781 10778 10778 10777 10775 10773 10771 10769 10767 10765 10763 10761 10759 10757 10756 10754 10752 10750 10749 10747 10745 10744 10742 10740 10739 10737 10736 10734 10732 10730 10729 10728 10726 10724 10722 10721 10719
10747 10750 10751 10754 10756 10758 10760 10762 10763 10762 10763 10766 10768 10769 10771 10772 10777 10778 10776 10779 10782 10782 10782 10783 10785 10783 10780 10783 10783 10784 10784 10781 10779 10780 10779 10779 10780 10781 10781 10782 10782 10783 10783 10783 10784 10783 10782 10782 10780 10778 10776 10774 10773 10771 10770 10768 10766 10764 10762 10760 10758 10756 10754 10752 10750 10748 10747 10745 10743 10741 10740 10739 10737 10735 10734 10732 10730 10729 10727 10725 10724 10722 10720 10718 10716 10714
10743 10745 10747 10750 10751 10753 10754 10755 10757 10759 10760 10761 10762 10764 10766 10767 10772 10773 10773 10776 10777 10777 10778 10779 10783 10780 10776 10779 10780 10780 10780 10778 10776 10776 10775 10774 10775 10776 10776 10776 10777 10778 10779 10779 10780 10779 10778 10778 10776 10775 10773 10771 10769 10767 10766 10765 10763 10761 10759 10757 10755 10753 10750 10748 10747 10745 10743 10741 10739 10737 10736 10735 10733 10732 10730 10728 10726 10725 10724 10722 10720 10719 10716 10714 10712 10709
10738 10740 10743 10745 10745 10747 10750 10751 10753 10754 10754 10756 10757 10759 10760 10762 10767 10769 10770 10771 10771 10774 10775 10775 10780 10778 10773 10775 10777 10776 10775 10775 10773 10772 10770 10769 10770 10772 10772 10772 10772 10773 10773 10774 10775 10775 10775 10773 10772 10771 10769 10768 10766 10764 10762 10761 10760 10758 10755 10754 10752 10750 10747 10744 10743 10741 10739 10737 10735 10734 10732 10731 10729 10728 10726 10724 10722 10721 10719 10717 10716 10714 10712 10710 10707 10705
10732 10736 10739 10738 10739 10743 10746 10747 10747 10748 10749 10750 10752 10753 10754 10758 10762 10763 10765 10766 10767 10770 10772 10772 10775 10776 10773 10772 10772 10770 10770 10771 10771 10768 10765 10764 10765 10766 10767 10768 10769 10769 10768 10769 10770 10770 10771 10770 10768 10767 10766 10764 10762 10760 10758 10757 10756 10754 10752 10750 10748 10747 10744 10741 10739 10738 10736 10734 10732 10730 10729 10727 10725 10724 10723 10720 10718 10716 10715 10713 10711 10709 10707 10706 10704 10701
10729 10732 10733 10732 10734 10737 10740 10740 10741 10742 10743 10744 10746 10748 10750 10754 10756 10757 10760 10763 10763 10766 10768 10768 10771 10775 10773 10770 10768 10765 10764 10767 10768 10765 10760 10758 10760 10760 10761 10763 10763 10763 10764 10766 10766 10765 10765 10765 10765 10764 10762 10760 10758 10756 10754 10753 10752 10751 10748 10746 10744 10743 10740 10738 10736 10734 10732 10730 10728 10726 10725 10723 10721 10720 10719 10717 10715 10713 10710 10709 10707 10704 10702 10700 10699 10696
10724 10726 10726 10725 10727 10730 10733 10735 10736 10737 10738 10739 10743 10744 10746 10749 10750 10751 10755 10757 10759 10762 10763 10762 10766 10774 10773 10768 10765 10761 10760 10763 10763 10761 10756 10753 10754 10754 10755 10756 10756 10756 10758 10761 10763 10761 10759 10760 10760 10759 10758 10756 10754 10751 10750 10749 10748 10746 10744 10742 10740 10738 10736 10734 10733 10730 10728 10725 10723 10721 10720 10719 10717 10716 10714 10712 10711 10709 10706 10704 10702 10700 10697 10695 10693 10691
10718 10719 10718 10718 10721 10726 10729 10731 10732 10732 10733 10736 10739 10740 10740 10742 10745 10746 10748 10750 10753 10757 10758 10758 10761 10769 10773 10768 10761 10757 10758 10760 10759 10755 10750 10747 10746 10747 10749 10749 10749 10749 10750 10753 10756 10755 10754 10753 10754 10753 10752 10751 10749 10747 10745 10744 10743 10741 10740 10738 10736 10734 10732 10730 10728 10726 10723 10721 10719 10717 10716 10714 10713 10711 10709 10708 10706 10704 10701 10699 10697 10695 10693 10690 10688 10685
10712 10713 10713 10714 10717 10722 10725 10726 10727 10726 10728 10732 10734 10734 10733 10735 10739 10740 10741 10744 10747 10751 10756 10757 10755 10761 10771 10768 10759 10756 10756 10757 10755 10751 10746 10741 10738 10739 10741 10741 10741 10741 10742 10744 10746 10747 10746 10746 10747 10747 10746 10746 10744 10743 10741 10739 10737 10736 10735 10734 10732 10730 10727 10725 10723 10721 10719 10716 10714 10713 10711 10710 10708 10705 10704 10702 10700 10698 10697 10694 10692 10690 10687 10685 10682 10680
10707 10707 10708 10710 10713 10717 10719 10719 10720 10720 10722 10726 10727 10728 10727 10728 10731 10733 10735 10738 10739 10746 10754 10754 10750 10754 10764 10766 10760 10758 10756 10753 10751 10747 10743 10738 10733 10733 10734 10734 10734 10734 10735 10737 10739 10739 10738 10738 10739 10740 10740 10739 10739 10737 10735 10733 10731 10730 10730 10729 10727 10724 10722 10720 10718 10716 10714 10712 10710 10709 10707 10705 10702 10700 10698 10697 10695 10693 10691 10689 10686 10684 10681 10679 10676 10674
10701 10701 10703 10705 10707 10710 10711 10712 10713 10714 10718 10720 10721 10722 10721 10722 10724 10725 10729 10732 10734 10743 10749 10748 10745 10746 10756 10763 10760 10758 10755 10752 10749 10745 10742 10736 10731 10731 10731 10731 10731 10730 10732 10733 10733 10732 10731 10731 10732 10732 10732 10732 10732 10731 10729 10727 10725 10725 10725 10723 10721 10718 10716 10714 10712 10711 10709 10707 10706 10704 10702 10700 10697 10695 10694 10692 10690 10688 10686 10683 10680 10678 10675 10672 10669 10667
10695 10696 10697 10699 10700 10703 10704 10705 10707 10709 10713 10715 10715 10715 10715 10715 10717 10718 10723 10726 10729 10738 10742 10740 10740 10741 10751 10760 10756 10753 10752 10749 10747 10744 10741 10736 10732 10732 10729 10729 10730 10729 10729 10730 10729 10727 10726 10726 10726 10726 10725 10724 10724 10724 10722 10720 10719 10719 10719 10717 10715 10712 10710 10708 10707 10705 10704 10702 10701 10699 10697 10695 10693 10691 10689 10687 10685 10683 10681 10678 10674 10671 10668 10665 10663 10660
10687 10689 10690 10692 10695 10697 10698 10700 10702 10704 10706 10707 10707 10707 10707 10708 10710 10713 10718 10721 10724 10731 10734 10734 10734 10738 10748 10754 10750 10749 10747 10743 10741 10740 10738 10734 10731 10730 10726 10726 10728 10728 10728 10727 10725 10723 10722 10722 10722 10721 10720 10718 10718 10717 10715 10714 10714 10713 10712 10711 10709 10706 10703 10702 10701 10699 10697 10696 10695 10693 10692 10690 10688 10686 10683 10681 10679 10676 10674 10671 10668 10665 10662 10658 10655 10652
10682 10685 10687 10687 10689 10691 10692 10693 10694 10695 10696 10698 10699 10699 10700 10703 10706 10711 10713 10714 10717 10722 10726 10727 10728 10736 10746 10747 10743 10743 10740 10737 10737 10736 10734 10731 10727 10724 10721 10721 10723 10724 10725 10724 10721 10720 10720 10719 10718 10717 10715 10714 10713 10712 10709 10708 10708 10708 10706 10704 10702 10699 10697 10695 10694 10693 10691 10690 10689 10688 10686 10684 10682 10680 10677 10674 10671 10669 10667 10664 10661 10658 10654 10651 10648 10645
10676 10680 10682 10680 10681 10682 10683 10684 10684 10686 10688 10690 10691 10692 10696 10700 10702 10705 10705 10706 10710 10713 10717 10719 10724 10735 10742 10740 10738 10736 10733 10732 10732 10732 10729 10726 10722 10719 10718 10718 10718 10719 10720 10719 10716 10715 10715 10715 10714 10712 10711 10710 10709 10707 10704 10703 10703 10702 10699 10697 10695 10692 10690 10688 10687 10686 10685 10684 10683 10682 10680 10677 10676 10673 10670 10667 10664 10662 10659 10657 10653 10650 10647 10644 10641 10637
10667 10671 10673 10672 10672 10673 10673 10674 10675 10678 10681 10683 10683 10686 10694 10697 10694 10695 10697 10700 10702 10704 10711 10716 10722 10730 10733 10732 10733 10730 10728 10727 10726 10725 10722 10719 10717 10715 10713 10712 10712 10713 10713 10712 10711 10710 10710 10709 10708 10707 10706 10705 10704 10702 10699 10698 10698 10696 10693 10690 10688 10686 10683 10681 10680 10680 10679 10678 10676 10675 10673 10671 10669 10666 10664 10661 10658 10655 10653 10650 10647 10643 10640 10637 10633 10631
10658 10661 10664 10664 10664 10664 10664 10665 10668 10672 10675 10676 10678 10683 10690 10690 10685 10685 10689 10693 10692 10696 10709 10713 10716 10722 10722 10725 10729 10725 10724 10724 10720 10718 10715 10712 10712 10710 10706 10705 10706 10707 10705 10703 10704 10704 10704 10703 10701 10701 10701 10700 10699 10697 10696 10694 10693 10691 10688 10684 10681 10679 10676 10675 10674 10673 10672 10671 10670 10668 10666 10664 10662 10659 10657 10654 10651 10649 10646 10643 10640 10636 10633 10630 10627 10624
10649 10651 10656 10658 10657 10657 10657 10657 10660 10665 10669 10672 10674 10678 10680 10679 10678 10678 10679 10684 10685 10688 10701 10707 10709 10714 10716 10721 10725 10720 10719 10717 10713 10713 10712 10708 10708 10704 10700 10699 10701 10701 10699 10698 10697 10695 10695 10696 10695 10695 10694 10694 10693 10692 10691 10690 10687 10685 10682 10677 10674 10673 10671 10668 10668 10667 10666 10665 10663 10661 10659 10657 10654 10652 10650 10647 10644 10641 10638 10635 10632 10629 10625 10622 10620 10617
10641 10644 10647 10650 10650 10650 10648 10649 10654 10660 10663 10666 10668 10668 10668 10669 10671 10671 10670 10675 10678 10680 10690 10700 10703 10709 10714 10718 10717 10712 10711 10709 10707 10708 10705 10703 10703 10699 10694 10694 10695 10696 10695 10693 10691 10688 10687 10688 10688 10687 10687 10688 10687 10686 10685 10683 10681 10678 10675 10672 10670 10667 10665 10662 10661 10661 10659 10658 10656 10653 10651 10649 10646 10644 10642 10639 10636 10633 10630 10627 10624 10621 10617 10615 10612 10609
10632 10634 10636 10641 10642 10640 10641 10644 10650 10655 10655 10655 10657 10658 10660 10661 10663 10664 10664 10667 10670 10672 10681 10691 10695 10705 10713 10711 10707 10705 10704 10702 10702 10702 10699 10698 10696 10690 10686 10686 10688 10689 10690 10687 10684 10681 10680 10679 10679 10679 10680 10681 10681 10679 10678 10675 10672 10670 10669 10669 10667 10662 10658 10656 10655 10654 10652 10650 10648 10645 10642 10640 10638 10636 10633 10630 10628 10625 10622 10619 10616 10613 10610 10607 10605 10602
10621 10625 10628 10633 10634 10634 10637 10642 10643 10643 10642 10643 10647 10651 10655 10656 10656 10657 10659 10661 10663 10666 10674 10679 10686 10701 10707 10701 10699 10699 10697 10696 10696 10695 10695 10693 10689 10684 10680 10679 10679 10682 10683 10680 10677 10675 10674 10672 10671 10671 10673 10674 10674 10672 10670 10667 10664 10662 10663 10664 10664 10658 10652 10651 10650 10648 10645 10642 10640 10637 10634 10632 10630 10627 10624 10621 10619 10616 10614 10611 10608 10605 10602 10600 10597 10595
10612 10615 10617 10621 10626 10629 10631 10632 10631 10632 10633 10636 10640 10646 10650 10651 10649 10648 10652 10656 10656 10658 10664 10665 10673 10696 10703 10692 10690 10692 10689 10690 10690 10689 10689 10684 10680 10679 10677 10673 10674 10676 10676 10673 10669 10667 10666 10666 10665 10665 10666 10665 10665 10664 10663 10660 10656 10654 10655 10657 10658 10652 10646 10644 10643 10640 10638 10634 10632 10630 10627 10625 10622 10620 10617 10613 10611 10609 10606 10604 10601 10598 10595 10592 10590 10588
10599 10603 10606 10611 10619 10623 10622 10623 10624 10625 10629 10631 10635 10641 10643 10643 10643 10641 10643 10647 10646 10648 10657 10654 10660 10688 10698 10684 10683 10686 10683 10684 10684 10681 10679 10674 10671 10672 10669 10668 10669 10671 10670 10665 10661 10659 10657 10659 10661 10659 10658 10657 10656 10656 10655 10653 10649 10648 10649 10649 10649 10644 10639 10636 10634 10632 10629 10626 10624 10622 10620 10617 10615 10613 10610 10606 10603 10601 10598 10596 10593 10590 10588 10585 10583 10581
10587 10592 10597 10602 10607 10611 10613 10616 10618 10620 10623 10626 10630 10634 10633 10633 10635 10632 10631 10635 10634 10640 10651 10646 10650 10680 10691 10678 10677 10680 10677 10676 10674 10670 10667 10664 10663 10662 10660 10662 10664 10663 10660 10656 10654 10653 10652 10653 10654 10651 10648 10648 10650 10649 10647 10645 10643 10642 10642 10641 10639 10636 10632 10629 10625 10623 10621 10618 10616 10614 10612 10610 10607 10604 10602 10599 10596 10593 10590 10588 10585 10582 10580 10578 10575 10573
10575 10579 10585 10588 10592 10600 10607 10613 10616 10618 10619 10619 10622 10623 10622 10624 10623 10621 10624 10622 10622 10635 10647 10640 10647 10674 10682 10671 10669 10670 10667 10667 10664 10660 10657 10655 10654 10653 10652 10654 10655 10652 10650 10647 10646 10648 10647 10645 10645 10644 10640 10638 10640 10641 10640 10638 10637 10636 10634 10632 10631 10627 10624 10621 10617 10614 10613 10611 10608 10606 10603 10601 10598 10596 10594 10591 10588 10585 10582 10580 10577 10574 10572 10570 10568 10566
10563 10567 10572 10576 10583 10594 10606 10612 10614 10612 10607 10606 10613 10615 10614 10613 10611 10613 10616 10612 10618 10636 10641 10633 10643 10663 10668 10662 10661 10659 10656 10655 10654 10652 10650 10647 10645 10645 10646 10645 10643 10641 10640 10638 10639 10641 10640 10637 10637 10638 10634 10629 10630 10633 10633 10630 10628 10627 10625 10623 10622 10619 10615 10613 10609 10606 10604 10603 10600 10597 10594 10592 10590 10588 10585 10582 10580 10577 10575 10572 10569 10567 10565 10562 10560 10558
10552 10556 10562 10568 10576 10588 10601 10606 10604 10600 10596 10599 10608 10609 10606 10605 10603 10602 10605 10610 10623 10631 10627 10628 10636 10646 10656 10656 10648 10647 10647 10645 10645 10645 10642 10640 10637 10636 10637 10635 10633 10632 10631 10630 10631 10631 10630 10630 10629 10629 10626 10623 10622 10624 10624 10622 10619 10618 10616 10614 10613 10610 10607 10605 10603 10599 10597 10595 10592 10589 10586 10583 10581 10579 10576 10574 10572 10569 10567 10564 10561 10559 10557 10554 10552 10549
10543 10548 10556 10563 10569 10580 10592 10595 10590 10589 10593 10596 10599 10599 10598 10598 10597 10593 10598 10614 10624 10614 10614 10630 10628 10623 10644 10650 10636 10635 10639 10634 10634 10635 10633 10633 10630 10627 10627 10625 10624 10624 10622 10623 10624 10622 10622 10622 10621 10620 10620 10619 10617 10615 10614 10612 10610 10609 10608 10606 10604 10602 10599 10598 10596 10593 10590 10588 10584 10580 10578 10575 10572 10570 10567 10566 10564 10561 10559 10556 10554 10551 10549 10546 10544 10541
10535 10541 10551 10556 10560 10570 10581 10583 10579 10581 10589 10590 10587 10589 10590 10589 10590 10592 10599 10613 10615 10599 10604 10624 10617 10609 10633 10641 10626 10625 10627 10621 10621 10624 10623 10624 10623 10619 10618 10617 10616 10615 10614 10615 10615 10614 10614 10613 10611 10612 10614 10615 10613 10609 10607 10604 10602 10601 10600 10598 10596 10593 10591 10591 10589 10585 10582 10580 10576 10572 10570 10567 10564 10562 10559 10557 10555 10553 10551 10548 10545 10543 10541 10538 10535 10533
10528 10534 10545 10549 10551 10557 10567 10574 10572 10571 10576 10579 10578 10580 10582 10583 10587 10592 10598 10605 10600 10588 10594 10609 10605 10606 10625 10628 10615 10614 10614 10608 10609 10612 10614 10615 10613 10611 10610 10609 10608 10607 10607 10607 10607 10606 10605 10602 10603 10605 10605 10606 10605 10603 10601 10598 10595 10595 10593 10590 10587 10584 10583 10582 10580 10576 10574 10572 10568 10564 10561 10558 10556 10554 10551 10549 10547 10544 10542 10540 10537 10535 10532 10530 10527 10524
10522 10530 10540 10542 10538 10543 10559 10569 10565 10559 10559 10562 10566 10573 10581 10585 10587 10589 10592 10592 10586 10581 10587 10593 10591 10605 10622 10613 10598 10602 10603 10598 10600 10604 10604 10604 10601 10600 10600 10599 10599 10599 10600 10600 10599 10597 10594 10594 10596 10598 10597 10595 10593 10593 10593 10591 10589 10588 10585 10581 10578 10576 10574 10573 10570 10567 10564 10562 10559 10556 10552 10549 10547 10545 10543 10541 10538 10536 10533 10531 10529 10526 10523 10521 10518 10516
10515 10523 10533 10534 10524 10533 10556 10560 10552 10546 10539 10539 10556 10577 10586 10586 10584 10582 10579 10576 10576 10576 10577 10576 10580 10602 10614 10596 10585 10593 10594 10589 10592 10594 10592 10592 10591 10589 10590 10590 10590 10590 10590 10590 10588 10586 10586 10587 10588 10587 10586 10584 10583 10583 10583 10582 10581 10579 10575 10571 10569 10567 10565 10563 10560 10557 10554 10551 10549 10547 10543 10540 10538 10536 10534 10532 10530 10528 10525 10522 10520 10516 10513 10511 10509 10507
10507 10513 10523 10522 10513 10526 10545 10544 10538 10532 10520 10528 10561 10581 10579 10575 10575 10571 10566 10568 10571 10567 10564 10566 10576 10592 10596 10582 10578 10584 10582 10577 10580 10581 10581 10583 10582 10579 10580 10583 10583 10581 10578 10577 10578 10578 10579 10579 10577 10575 10574 10574 10573 10573 10572 10572 10571 10569 10565 10563 10560 10557 10555 10552 10549 10547 10543 10539 10537 10536 10534 10531 10529 10527 10525 10523 10521 10519 10517 10514 10510 10507 10504 10502 10500 10498
10501 10506 10512 10511 10506 10515 10530 10531 10524 10513 10511 10537 10568 10571 10562 10563 10562 10556 10557 10564 10564 10558 10555 10560 10568 10577 10578 10571 10568 10570 10570 10568 10570 10573 10575 10572 10568 10569 10573 10574 10573 10570 10568 10568 10571 10572 10570 10569 10567 10565 10564 10564 10562 10561 10561 10561 10560 10558 10555 10553 10549 10546 10544 10541 10539 10536 10532 10528 10526 10525 10523 10522 10520 10518 10515 10513 10511 10509 10507 10504 10501 10498 10495 10492 10490 10488
10497 10499 10501 10502 10499 10503 10515 10517 10506 10502 10520 10546 10557 10553 10552 10552 10547 10543 10547 10554 10554 10549 10548 10551 10555 10561 10562 10557 10555 10558 10560 10559 10561 10568 10568 10559 10556 10560 10563 10562 10560 10559 10561 10562 10563 10563 10560 10558 10557 10555 10555 10553 10551 10549 10548 10548 10547 10546 10544 10540 10537 10535 10533 10531 10529 10525 10521 10518 10516 10514 10512 10511 10511 10509 10506 10503 10500 10499 10497 10494 10491 10489 10486 10483 10480 10478
10490 10490 10490 10491 10488 10490 10499 10501 10496 10504 10523 10534 10538 10545 10547 10539 10534 10531 10532 10538 10542 10539 10537 10539 10543 10548 10547 10542 10543 10547 10548 10546 10552 10561 10559 10550 10548 10548 10547 10548 10550 10552 10555 10554 10553 10552 10550 10547 10546 10545 10543 10541 10539 10537 10535 10535 10534 10533 10531 10528 10525 10523 10522 10520 10518 10513 10509 10508 10507 10505 10502 10501 10501 10500 10497 10493 10490 10488 10486 10483 10481 10479 10476 10474 10471 10469
10480 10480 10480 10479 10479 10481 10484 10488 10492 10496 10505 10519 10534 10543 10536 10525 10522 10517 10512 10523 10535 10530 10525 10526 10530 10534 10532 10528 10531 10536 10532 10531 10543 10555 10549 10538 10536 10535 10536 10540 10542 10544 10546 10544 10542 10542 10540 10537 10535 10533 10531 10529 10527 10525 10523 10521 10520 10519 10518 10516 10513 10512 10511 10509 10506 10502 10500 10499 10498 10495 10493 10491 10489 10488 10486 10484 10480 10477 10475 10473 10472 10469 10467 10464 10462 10459
10469 10469 10471 10468 10468 10471 10470 10473 10477 10480 10495 10520 10532 10529 10519 10513 10511 10503 10496 10511 10529 10525 10513 10513 10516 10517 10515 10514 10520 10523 10516 10519 10538 10545 10533 10523 10524 10527 10529 10531 10531 10534 10535 10533 10532 10531 10528 10526 10524 10521 10519 10517 10514 10513 10511 10509 10508 10507 10505 10503 10501 10500 10499 10497 10494 10493 10491 10490 10487 10485 10483 10480 10478 10477 10475 10473 10471 10468 10465 10464 10462 10460 10457 10454 10451 10448
10457 10459 10461 10457 10456 10460 10460 10460 10463 10469 10492 10516 10519 10512 10507 10502 10500 10492 10484 10500 10522 10515 10501 10502 10502 10498 10499 10502 10507 10508 10505 10514 10530 10528 10514 10513 10519 10519 10518 10518 10519 10521 10521 10520 10520 10518 10515 10515 10513 10509 10507 10505 10502 10501 10500 10498 10497 10495 10493 10491 10489 10489 10486 10484 10483 10483 10481 10480 10477 10475 10473 10470 10468 10465 10463 10462 10461 10458 10456 10454 10452 10449 10447 10443 10440 10437
10447 10447 10448 10445 10446 10450 10450 10450 10453 10460 10482 10502 10503 10501 10498 10489 10485 10480 10476 10494 10511 10500 10490 10493 10485 10478 10486 10495 10496 10499 10500 10506 10513 10510 10503 10506 10510 10507 10506 10507 10507 10508 10508 10507 10507 10506 10504 10502 10500 10497 10494 10492 10490 10489 10487 10486 10486 10484 10482 10480 10479 10476 10473 10472 10472 10472 10470 10469 10468 10465 10463 10460 10457 10455 10452 10450 10449 10447 10446 10443 10441 10438 10436 10432 10429 10425
10434 10435 10435 10435 10439 10440 10439 10441 10442 10449 10471 10488 10488 10488 10485 10474 10470 10474 10477 10487 10490 10479 10476 10479 10471 10469 10480 10485 10487 10491 10493 10493 10497 10498 10495 10495 10496 10494 10494 10495 10495 10496 10496 10495 10494 10494 10492 10490 10487 10484 10481 10479 10478 10476 10475 10475 10475 10473 10472 10470 10468 10465 10463 10462 10462 10460 10459 10459 10458 10455 10453 10450 10447 10444 10441 10438 10437 10435 10434 10432 10429 10427 10424 10420 10417 10414
10423 10425 10424 10424 10428 10429 10431 10431 10428 10438 10464 10477 10472 10470 10467 10458 10460 10471 10473 10469 10465 10462 10465 10468 10466 10467 10470 10473 10477 10480 10480 10480 10483 10485 10484 10483 10483 10482 10481 10482 10483 10483 10482 10481 10481 10480 10479 10478 10474 10471 10469 10467 10466 10464 10463 10464 10464 10463 10462 10460 10457 10454 10453 10453 10451 10449 10448 10448 10446 10445 10442 10439 10436 10433 10429 10427 10425 10423 10422 10420 10418 10414 10410 10407 10404 10401
10410 10410 10410 10414 10419 10419 10420 10419 10418 10433 10455 10460 10451 10449 10449 10446 10452 10458 10453 10448 10453 10458 10459 10460 10460 10458 10457 10462 10467 10466 10467 10469 10468 10469 10472 10472 10471 10470 10470 10469 10470 10469 10468 10468 10467 10467 10467 10466 10463 10459 10457 10455 10454 10453 10452 10453 10453 10452 10451 10449 10446 10444 10444 10443 10440 10439 10438 10436 10434 10433 10430 10427 10425 10421 10418 10416 10413 10411 10410 10408 10405 10401 10397 10393 10390 10387
10394 10397 10401 10408 10411 10407 10404 10407 10413 10425 10435 10436 10433 10435 10437 10438 10441 10440 10435 10437 10443 10446 10447 10447 10448 10445 10446 10451 10454 10453 10457 10458 10455 10456 10458 10458 10458 10459 10459 10458 10458 10457 10456 10456 10455 10455 10455 10454 10452 10449 10446 10444 10443 10442 10442 10442 10443 10442 10440 10437 10436 10435 10434 10432 10429 10428 10426 10424 10422 10420 10418 10415 10413 10409 10407 10404 10401 10399 10397 10394 10391 10387 10383 10380 10376 10372
10383 10389 10391 10392 10393 10391 10391 10398 10406 10413 10418 10421 10424 10425 10423 10424 10426 10425 10424 10425 10426 10428 10431 10433 10434 10435 10436 10440 10442 10442 10444 10444 10444 10445 10444 10444 10446 10446 10446 10447 10447 10445 10445 10444 10443 10443 10443 10442 10441 10439 10436 10433 10431 10431 10431 10431 10432 10432 10429 10426 10424 10423 10421 10419 10417 10415 10413 10410 10408 10406 10404 10402 10400 10397 10394 10391 10387 10385 10382 10379 10376 10372 10368 10365 10361 10357
10371 10377 10375 10374 10377 10381 10385 10393 10399 10403 10405 10407 10408 10408 10408 10409 10410 10410 10411 10411 10412 10415 10418 10418 10421 10423 10424 10426 10429 10429 10429 10430 10432 10433 10432 10432 10433 10432 10432 10434 10434 10433 10433 10433 10431 10430 10431 10431 10431 10428 10426 10423 10420 10419 10420 10419 10419 10420 10417 10414 10412 10410 10408 10406 10404 10402 10399 10396 10394 10392 10389 10388 10386 10383 10381 10377 10373 10371 10367 10364 10361 10357 10353 10350 10346 10342
10359 10363 10364 10365 10366 10369 10376 10385 10390 10390 10390 10392 10393 10394 10394 10394 10394 10396 10399 10400 10400 10401 10402 10404 10406 10408 10409 10411 10414 10414 10415 10417 10418 10419 10420 10420 10420 10420 10419 10419 10419 10420 10420 10420 10420 10419 10418 10418 10418 10416 10415 10413 10409 10407 10407 10406 10405 10405 10403 10401 10398 10395 10393 10392 10390 10387 10384 10382 10380 10377 10375 10374 10371 10369 10366 10362 10359 10356 10352 10349 10345 10341 10338 10334 10331 10328
10348 10351 10353 10355 10354 10356 10365 10374 10378 10376 10377 10379 10381 10380 10379 10379 10381 10385 10386 10386 10386 10386 10386 10388 10389 10390 10393 10395 10397 10399 10403 10405 10404 10405 10406 10406 10407 10408 10407 10405 10406 10406 10405 10405 10406 10406 10405 10405 10404 10403 10402 10401 10397 10395 10393 10392 10390 10389 10388 10386 10382 10380 10378 10376 10374 10372 10369 10367 10365 10363 10361 10359 10356 10353 10350 10346 10343 10340 10337 10333 10330 10326 10323 10320 10317 10315
10336 10338 10339 10340 10342 10346 10353 10359 10362 10361 10362 10366 10367 10367 10367 10369 10370 10371 10370 10370 10371 10371 10371 10372 10373 10375 10377 10379 10381 10385 10390 10392 10391 10389 10390 10393 10395 10393 10392 10393 10393 10393 10393 10391 10389 10390 10390 10389 10388 10387 10388 10386 10384 10382 10380 10378 10375 10372 10370 10368 10366 10364 10362 10360 10358 10356 10354 10352 10350 10347 10345 10343 10340 10337 10334 10331 10328 10325 10321 10318 10315 10312 10309 10307 10304 10302
10325 10325 10324 10325 10329 10334 10339 10344 10346 10346 10348 10352 10355 10355 10356 10357 10355 10354 10354 10355 10356 10357 10357 10358 10358 10359 10361 10365 10368 10370 10373 10375 10374 10372 10374 10379 10380 10378 10377 10378 10379 10380 10380 10377 10375 10375 10374 10372 10371 10372 10371 10369 10367 10365 10364 10361 10358 10356 10353 10351 10349 10347 10345 10343 10341 10339 10337 10335 10333 10330 10328 10326 10323 10320 10318 10315 10312 10310 10307 10304 10301 10299 10296 10293 10291 10287
10309 10308 10307 10309 10314 10321 10326 10330 10331 10332 10334 10338 10341 10342 10344 10344 10340 10338 10340 10341 10342 10343 10342 10342 10344 10345 10348 10351 10352 10353 10355 10357 10356 10355 10357 10361 10363 10363 10362 10362 10363 10364 10364 10361 10360 10359 10357 10356 10355 10355 10354 10352 10349 10347 10345 10343 10340 10337 10335 10333 10331 10329 10327 10325 10323 10322 10320 10317 10315 10313 10311 10309 10307 10304 10302 10300 10298 10295 10293 10290 10288 10285 10282 10279 10276 10272